[Date Prev][Date Next][Thread Prev][Thread Next] - [Date Index][Thread Index][Author Index]
2 Line ISS Keps 12-01
- Subject: [sarex] 2 Line ISS Keps 12-01
- From: "Dave Larsen PhD" <doc@xxxxxxxxxxx>
- Date: Wed, 1 Dec 2004 01:34:19 -0800
ISS
1 25544U 98067A 04336.13228205 .00021508 00000-0 17306-3 0 2628
2 25544 51.6369 193.7235 0004269 67.3072 22.9991 15.70875912344545
----
Via the sarex mailing list at AMSAT.ORG courtesy of AMSAT-NA.
To unsubscribe, send "unsubscribe sarex" to Majordomo@amsat.org
AMSAT Home